Time,TemperatureF,DewpointF,PressureIn,WindDirection,WindDirectionDegrees,WindSpeedMPH,WindSpeedGustMPH,Humidity,HourlyPrecipIn,Conditions,Clouds,dailyrainin,SoftwareType,DateUTC
2013-10-15 00:14:00,51.0,47.0,30.25,North,0,0.0,0.0,86,0.00,,,0.00,,2013-10-15 04:14:00,
2013-10-15 00:24:00,51.0,47.0,30.24,North,0,0.0,0.0,86,0.00,,,0.00,,2013-10-15 04:24:00,
2013-10-15 00:43:00,51.0,47.0,30.24,North,0,0.0,0.0,86,0.00,,,0.00,,2013-10-15 04:43:00,
2013-10-15 00:54:00,52.0,48.0,30.24,North,0,0.0,0.0,87,0.00,,,0.00,,2013-10-15 04:54:00,
2013-10-15 01:13:00,52.0,48.0,30.24,North,0,0.0,0.0,87,0.00,,,0.00,,2013-10-15 05:13:00,
2013-10-15 01:22:00,52.0,48.0,30.23,North,0,0.0,0.0,87,0.00,,,0.00,,2013-10-15 05:22:00,
2013-10-15 01:34:00,52.0,48.0,30.23,North,0,0.0,0.0,87,0.00,,,0.00,,2013-10-15 05:34:00,
2013-10-15 01:42:00,52.0,48.0,30.23,North,0,0.0,0.0,87,0.00,,,0.00,,2013-10-15 05:42:00,
2013-10-15 01:53:00,52.0,48.0,30.23,North,0,0.0,0.0,87,0.00,,,0.00,,2013-10-15 05:53:00,
2013-10-15 02:12:00,52.0,48.0,30.24,North,0,0.0,0.0,87,0.00,,,0.00,,2013-10-15 06:12:00,
2013-10-15 02:22:00,52.0,49.0,30.23,North,0,0.0,0.0,88,0.00,,,0.00,,2013-10-15 06:22:00,
2013-10-15 02:43:00,51.0,48.0,30.23,North,0,0.0,0.0,88,0.00,,,0.00,,2013-10-15 06:43:00,
2013-10-15 02:52:00,51.0,48.0,30.23,North,0,0.0,0.0,88,0.00,,,0.00,,2013-10-15 06:52:00,
2013-10-15 03:12:00,51.0,48.0,30.23,North,0,0.0,0.0,88,0.00,,,0.00,,2013-10-15 07:12:00,
2013-10-15 03:22:00,51.0,48.0,30.23,North,0,0.0,0.0,88,0.00,,,0.00,,2013-10-15 07:22:00,
2013-10-15 03:42:00,51.0,48.0,30.23,North,0,0.0,0.0,88,0.00,,,0.00,,2013-10-15 07:42:00,
2013-10-15 03:52:00,51.0,48.0,30.23,North,0,0.0,0.0,89,0.00,,,0.00,,2013-10-15 07:52:00,
2013-10-15 04:02:00,51.0,48.0,30.23,North,0,0.0,0.0,89,0.00,,,0.00,,2013-10-15 08:02:00,
2013-10-15 04:12:00,51.0,48.0,30.23,North,0,0.0,0.0,89,0.00,,,0.00,,2013-10-15 08:12:00,
2013-10-15 04:22:00,51.0,48.0,30.23,North,0,0.0,0.0,89,0.00,,,0.00,,2013-10-15 08:22:00,
2013-10-15 04:42:00,51.0,48.0,30.22,North,0,0.0,0.0,89,0.00,,,0.00,,2013-10-15 08:42:00,
2013-10-15 04:52:00,51.0,48.0,30.22,North,0,0.0,0.0,88,0.00,,,0.00,,2013-10-15 08:52:00,
2013-10-15 05:12:00,51.0,48.0,30.23,North,0,0.0,0.0,89,0.00,,,0.00,,2013-10-15 09:12:00,
2013-10-15 05:22:00,51.0,48.0,30.23,North,0,0.0,0.0,89,0.00,,,0.00,,2013-10-15 09:22:00,
2013-10-15 05:53:00,51.0,48.0,30.23,North,0,0.0,0.0,89,0.00,,,0.00,,2013-10-15 09:53:00,
2013-10-15 06:13:00,51.0,48.0,30.24,North,0,0.0,0.0,90,0.00,,,0.00,,2013-10-15 10:13:00,
2013-10-15 06:23:00,51.0,48.0,30.24,North,0,0.0,0.0,90,0.00,,,0.00,,2013-10-15 10:23:00,
2013-10-15 06:42:00,51.0,48.0,30.24,North,0,0.0,0.0,90,0.00,,,0.00,,2013-10-15 10:42:00,
2013-10-15 06:53:00,51.0,48.0,30.24,North,0,0.0,0.0,90,0.00,,,0.00,,2013-10-15 10:53:00,
2013-10-15 07:12:00,52.0,49.0,30.24,North,0,0.0,0.0,90,0.00,,,0.00,,2013-10-15 11:12:00,
2013-10-15 07:22:00,52.0,49.0,30.24,North,0,0.0,0.0,90,0.00,,,0.00,,2013-10-15 11:22:00,
2013-10-15 07:42:00,52.0,49.0,30.24,North,0,0.0,0.0,90,0.00,,,0.00,,2013-10-15 11:42:00,
2013-10-15 07:52:00,52.0,49.0,30.24,North,0,0.0,0.0,90,0.00,,,0.00,,2013-10-15 11:52:00,
2013-10-15 08:01:00,52.0,49.0,30.24,North,0,0.0,0.0,90,0.00,,,0.00,,2013-10-15 12:01:00,
2013-10-15 08:12:00,52.0,49.0,30.24,North,0,0.0,0.0,90,0.00,,,0.00,,2013-10-15 12:12:00,
2013-10-15 08:22:00,52.0,49.0,30.24,North,0,0.0,0.0,90,0.00,,,0.00,,2013-10-15 12:22:00,
2013-10-15 08:42:00,53.0,50.0,30.26,SE,142,0.0,1.0,91,0.00,,,0.00,,2013-10-15 12:42:00,
2013-10-15 08:52:00,54.0,51.0,30.26,SE,142,0.0,1.0,91,0.00,,,0.00,,2013-10-15 12:52:00,
2013-10-15 09:11:00,56.0,53.0,30.26,SSE,165,0.0,1.0,89,0.00,,,0.00,,2013-10-15 13:11:00,
2013-10-15 09:21:00,56.0,52.0,30.26,North,0,0.0,0.0,88,0.00,,,0.00,,2013-10-15 13:21:00,
2013-10-15 09:42:00,58.0,54.0,30.26,North,0,0.0,0.0,86,0.00,,,0.00,,2013-10-15 13:42:00,
2013-10-15 09:52:00,58.0,54.0,30.26,North,0,0.0,0.0,85,0.00,,,0.00,,2013-10-15 13:52:00,
2013-10-15 10:12:00,58.0,53.0,30.26,North,0,0.0,0.0,83,0.00,,,0.00,,2013-10-15 14:12:00,
2013-10-15 10:22:00,60.0,55.0,30.26,North,6,0.0,3.0,83,0.00,,,0.00,,2013-10-15 14:22:00,
2013-10-15 10:42:00,60.0,55.0,30.26,NNE,22,0.0,4.0,83,0.00,,,0.00,,2013-10-15 14:42:00,
2013-10-15 10:50:00,62.0,56.0,30.26,North,5,0.0,4.0,81,0.00,,,0.00,,2013-10-15 14:50:00,
2013-10-15 10:52:00,61.0,55.0,30.26,NNE,28,0.0,1.0,81,0.00,,,0.00,,2013-10-15 14:52:00,
2013-10-15 11:11:00,62.0,56.0,30.26,North,5,0.0,4.0,81,0.00,,,0.00,,2013-10-15 15:11:00,
2013-10-15 11:22:00,62.0,56.0,30.26,North,5,0.0,4.0,81,0.00,,,0.00,,2013-10-15 15:22:00,
2013-10-15 11:33:00,62.0,56.0,30.26,North,5,0.0,4.0,81,0.00,,,0.00,,2013-10-15 15:33:00,
2013-10-15 11:44:00,62.0,56.0,30.26,North,5,0.0,4.0,81,0.00,,,0.00,,2013-10-15 15:44:00,
2013-10-15 11:50:00,63.0,56.0,30.26,NNE,26,0.0,2.0,77,0.00,,,0.00,,2013-10-15 15:50:00,
2013-10-15 12:13:00,63.0,56.0,30.26,NNE,26,0.0,2.0,77,0.00,,,0.00,,2013-10-15 16:13:00,
2013-10-15 12:23:00,63.0,56.0,30.26,NNE,26,0.0,2.0,77,0.00,,,0.00,,2013-10-15 16:23:00,
2013-10-15 12:33:00,63.0,56.0,30.26,NNE,26,0.0,2.0,77,0.00,,,0.00,,2013-10-15 16:33:00,
2013-10-15 12:42:00,63.0,56.0,30.26,NNE,26,0.0,2.0,77,0.00,,,0.00,,2013-10-15 16:42:00,
2013-10-15 13:22:00,63.0,56.0,30.24,NE,51,0.0,3.0,77,0.00,,,0.00,,2013-10-15 17:22:00,
2013-10-15 13:42:00,63.0,55.0,30.23,ENE,65,0.0,5.0,76,0.00,,,0.00,,2013-10-15 17:42:00,
2013-10-15 13:53:00,63.0,55.0,30.22,ENE,59,0.0,2.0,74,0.00,,,0.00,,2013-10-15 17:53:00,
2013-10-15 14:12:00,64.0,55.0,30.22,NNE,15,0.0,4.0,73,0.00,,,0.00,,2013-10-15 18:12:00,
2013-10-15 14:22:00,64.0,54.0,30.21,ESE,102,0.0,4.0,70,0.00,,,0.00,,2013-10-15 18:22:00,
2013-10-15 14:42:00,67.0,55.0,30.21,East,82,0.0,2.0,66,0.00,,,0.00,,2013-10-15 18:42:00,
2013-10-15 14:52:00,69.0,56.0,30.20,ESE,108,1.0,5.0,64,0.00,,,0.00,,2013-10-15 18:52:00,
2013-10-15 15:12:00,68.0,56.0,30.20,NNE,21,1.0,4.0,65,0.00,,,0.00,,2013-10-15 19:12:00,
2013-10-15 15:22:00,69.0,55.0,30.20,East,99,1.0,4.0,62,0.00,,,0.00,,2013-10-15 19:22:00,
2013-10-15 15:42:00,66.0,54.0,30.20,SE,133,2.0,6.0,65,0.00,,,0.00,,2013-10-15 19:42:00,
2013-10-15 15:52:00,66.0,54.0,30.20,SE,133,2.0,6.0,65,0.00,,,0.00,,2013-10-15 19:52:00,
2013-10-15 16:12:00,66.0,55.0,30.19,East,87,0.0,2.0,67,0.00,,,0.00,,2013-10-15 20:12:00,
2013-10-15 16:22:00,66.0,55.0,30.19,East,87,0.0,2.0,67,0.00,,,0.00,,2013-10-15 20:22:00,
2013-10-15 16:42:00,64.0,53.0,30.18,NE,56,0.0,3.0,67,0.00,,,0.00,,2013-10-15 20:42:00,
2013-10-15 16:52:00,64.0,53.0,30.18,NE,56,0.0,3.0,67,0.00,,,0.00,,2013-10-15 20:52:00,
2013-10-15 17:13:00,63.0,54.0,30.19,North,0,0.0,0.0,72,0.00,,,0.00,,2013-10-15 21:13:00,
2013-10-15 17:22:00,62.0,53.0,30.18,WNW,295,0.0,1.0,72,0.00,,,0.00,,2013-10-15 21:22:00,
2013-10-15 17:44:00,62.0,53.0,30.18,North,0,0.0,0.0,73,0.00,,,0.00,,2013-10-15 21:44:00,
2013-10-15 17:54:00,60.0,52.0,30.17,North,0,0.0,0.0,74,0.00,,,0.00,,2013-10-15 21:54:00,
2013-10-15 18:04:00,60.0,52.0,30.17,North,0,0.0,0.0,74,0.00,,,0.00,,2013-10-15 22:04:00,
2013-10-15 18:13:00,60.0,52.0,30.17,North,0,0.0,0.0,74,0.00,,,0.00,,2013-10-15 22:13:00,
2013-10-15 18:23:00,60.0,52.0,30.17,North,0,0.0,0.0,74,0.00,,,0.00,,2013-10-15 22:23:00,
2013-10-15 18:43:00,57.0,52.0,30.19,North,0,0.0,0.0,82,0.00,,,0.00,,2013-10-15 22:43:00,
2013-10-15 18:54:00,56.0,51.0,30.19,North,0,0.0,0.0,83,0.00,,,0.00,,2013-10-15 22:54:00,
2013-10-15 19:12:00,55.0,50.0,30.20,North,0,0.0,0.0,84,0.00,,,0.00,,2013-10-15 23:12:00,
2013-10-15 19:22:00,54.0,50.0,30.20,North,0,0.0,0.0,85,0.00,,,0.00,,2013-10-15 23:22:00,
2013-10-15 19:43:00,54.0,50.0,30.20,North,0,0.0,0.0,87,0.00,,,0.00,,2013-10-15 23:43:00,
2013-10-15 19:52:00,54.0,50.0,30.20,North,0,0.0,0.0,87,0.00,,,0.00,,2013-10-15 23:52:00,
2013-10-15 20:12:00,54.0,51.0,30.20,North,0,0.0,0.0,88,0.00,,,0.00,,2013-10-16 00:12:00,
2013-10-15 20:22:00,54.0,51.0,30.20,North,0,0.0,0.0,89,0.00,,,0.00,,2013-10-16 00:22:00,
2013-10-15 20:42:00,54.0,51.0,30.21,North,0,0.0,0.0,89,0.00,,,0.00,,2013-10-16 00:42:00,
2013-10-15 20:52:00,54.0,51.0,30.21,North,0,0.0,0.0,89,0.00,,,0.00,,2013-10-16 00:52:00,
2013-10-15 21:11:00,54.0,51.0,30.20,North,0,0.0,0.0,89,0.00,,,0.00,,2013-10-16 01:11:00,
2013-10-15 21:22:00,54.0,51.0,30.20,North,0,0.0,0.0,88,0.00,,,0.00,,2013-10-16 01:22:00,
2013-10-15 21:42:00,53.0,50.0,30.20,North,0,0.0,0.0,88,0.00,,,0.00,,2013-10-16 01:42:00,
2013-10-15 21:52:00,53.0,50.0,30.20,North,0,0.0,0.0,88,0.00,,,0.00,,2013-10-16 01:52:00,
2013-10-15 22:12:00,52.0,49.0,30.20,North,0,0.0,0.0,88,0.00,,,0.00,,2013-10-16 02:12:00,
2013-10-15 22:22:00,52.0,49.0,30.21,North,0,0.0,0.0,89,0.00,,,0.00,,2013-10-16 02:22:00,
2013-10-15 22:42:00,52.0,49.0,30.20,North,0,0.0,0.0,90,0.00,,,0.00,,2013-10-16 02:42:00,
2013-10-15 22:52:00,52.0,49.0,30.20,North,0,0.0,0.0,90,0.00,,,0.00,,2013-10-16 02:52:00,
2013-10-15 23:02:00,52.0,49.0,30.20,North,0,0.0,0.0,90,0.00,,,0.00,,2013-10-16 03:02:00,
2013-10-15 23:11:00,52.0,49.0,30.20,North,0,0.0,0.0,90,0.00,,,0.00,,2013-10-16 03:11:00,
2013-10-15 23:22:00,52.0,49.0,30.19,North,0,0.0,0.0,90,0.00,,,0.00,,2013-10-16 03:22:00,
2013-10-15 23:45:00,52.0,49.0,30.18,North,0,0.0,0.0,90,0.00,,,0.00,,2013-10-16 03:45:00,
2013-10-15 23:55:00,51.0,48.0,30.18,North,0,0.0,0.0,90,0.00,,,0.00,,2013-10-16 03:55:00,